This demonstration page uses our WeatherBlox Daily Observations layout. Learn more.

Left ArrowRight Arrow

Hourly Observations for April 5, 2021

Temp ( °F °C ) Dew Point ( °F °C ) Humidity (%) Winds ( mph kmh ) Pressure ( in mb ) Visibility ( mi km ) Precip ( " mm )
12:53 am 00:53 Clear 68 20 49 9.4 51 51 S 13 20 29.80 1009 10 16 0.00 0.00
1:53 am 01:53 Clear 65 18.3 49 9.4 56 56 S 12 19 29.79 1009 10 16 0.00 0.00
2:53 am 02:53 Clear 63 17.2 49 9.4 60 60 SSW 13 20 29.77 1008 10 16 0.00 0.00
3:53 am 03:53 Clear 61 16.1 50 10 67 67 S 12 19 29.76 1008 10 16 0.00 0.00
4:53 am 04:53 Clear 59 15 50 10 72 72 SSW 13 20 29.74 1007 10 16 0.00 0.00
5:53 am 05:53 Clear 57 13.9 50 10 78 78 SSW 9 15 29.74 1007 10 16 0.00 0.00
6:53 am 06:53 Clear 56 13.3 51 10.6 84 84 S 8 13 29.73 1007 10 16 0.00 0.00
7:53 am 07:53 Sunny 57 13.9 52 11.1 83 83 SSW 10 17 29.73 1007 10 16 0.00 0.00
8:53 am 08:53 Sunny 60 15.6 53 11.7 78 78 SSW 12 19 29.73 1007 10 16 0.00 0.00
9:53 am 09:53 Sunny 63 17.2 54 12.2 73 73 SSW 16 26 29.72 1006 10 16 0.00 0.00
10:53 am 10:53 Sunny 67 19.4 54 12.2 63 63 SSW 10 17 29.71 1006 10 16 0.00 0.00
11:53 am 11:53 Sunny 70 21.1 54 12.2 57 57 S 15 24 29.68 1005 10 16 0.00 0.00
12:53 pm 12:53 Sunny 73 22.8 53 11.7 50 50 SSW 14 22 29.65 1004 10 16 0.00 0.00
1:53 pm 13:53 Sunny 76 24.4 53 11.7 45 45 S 15 24 29.62 1003 10 16 0.00 0.00
2:53 pm 14:53 Sunny 78 25.6 52 11.1 40 40 S 14 22 29.60 1002 10 16 0.00 0.00
3:53 pm 15:53 Sunny 80 26.7 52 11.1 38 38 SSW 18 30 29.58 1002 10 16 0.00 0.00
4:53 pm 16:53 Sunny 82 27.8 51 10.6 34 34 SSW 18 30 29.55 1001 10 16 0.00 0.00
5:53 pm 17:53 Sunny 81 27.2 52 11.1 37 37 SSW 12 19 29.55 1001 10 16 0.00 0.00
6:53 pm 18:53 Sunny 80 26.7 52 11.1 38 38 S 12 19 29.54 1000 10 16 0.00 0.00
7:53 pm 19:53 Sunny 77 25 52 11.1 42 42 S 10 17 29.55 1001 10 16 0.00 0.00
8:53 pm 20:53 Clear 73 22.8 51 10.6 46 46 S 13 20 29.56 1001 10 16 0.00 0.00
9:53 pm 21:53 Clear 71 21.7 53 11.7 53 53 S 10 17 29.57 1001 10 16 0.00 0.00
10:53 pm 22:53 Clear 69 20.6 54 12.2 59 59 S 14 22 29.57 1001 10 16 0.00 0.00
11:53 pm 23:53 Clear 67 19.4 54 12.2 63 63 S 14 22 29.57 1001 10 16 0.00 0.00

Powered by AerisWeather